Location: Unspecified
(0.0000°N, 0.0000°E)
Time: 05:59:24
(UTC+00:00)

Hubble Space Telescope - Pass Details

Date: 29 November 2020
Orbit: 536 x 540 km, 28.5° (Epoch: 03 December)

Event Time Altitude Azimuth Distance (km) Brightness Sun altitude
Exits shadow 05:04:56 11° 268° (W) 1,698 2.8 -10.1°
Maximum altitude 05:08:16 28° 209° (SSW) 1,016 2.1 -9.3°
Drops below altitude 10° 05:11:51 10° 149° (SSE) 1,786 4.3 -8.5°
Sets 05:14:20 0° 137° (SE) 2,679 5.7 -7.9°
